Imperial, CA

1:06 AM PDT on May 30, 2017 (GMT -0700)
Imperial County

Weather History for KIPL - June, 2014

Change the Weather History Date:

Monday, June 9, 2014

  Actual Average Record
Temperature  
Mean Temperature 90 °F -  
Max Temperature 109 °F 99 °F 115 °F (1978)
Min Temperature 71 °F 67 °F 57 °F (1951)
Cooling Degree Days 24    
Growing Degree Days 40 (Base 50)    
Moisture  
Dew Point 55 °F    
Average Humidity 36    
Maximum Humidity 70    
Minimum Humidity 13    
Precipitation  
Precipitation 0.00 in - - ()
Sea Level Pressure  
Sea Level Pressure 29.65 in    
Wind  
Wind Speed 8 mph (SE)    
Max Wind Speed 18 mph    
Max Gust Speed 20 mph    
Visibility 10 miles    
Events      
Averages and records for this station are not official NWS values.
T = Trace of Precipitation, MM = Missing Value Source: NWS Daily Summary

Daily Weather History Graph

Daily Weather History Graph

Search for Another Location

Airport or City:

Trip Planner

Search our weather history database for the weather conditions in past years. The results will help you decide how hot, cold, wet, or windy it might be!

Date:

Astronomy

Jun. 09, 2014 Rise Set
Actual Time 5:33 AM PDT 7:49 PM PDT
Civil Twilight 5:05 AM PDT 8:18 PM PDT
Nautical Twilight 4:30 AM PDT 8:53 PM PDT
Astronomical Twilight 3:52 AM PDT 9:31 PM PDT
Moon 4:24 PM PDT (6/9) 2:52 AM PDT (6/9)
Length of Visible Light 15h 13m
Length of Day
14h 16m
Waxing Gibbous, 86% of the Moon is Illuminated
Jun 9
Waxing Gibbous
Jun 12
Full
Jun 19
Last Quarter
Jun 27
New
Jul 5
First Quarter

Hourly Weather History & Observations

Time (PDT) Temp. Heat Index Dew Point Humidity Pressure Visibility Wind Dir Wind Speed Gust Speed Precip Events Conditions
12:53 AM 78.1 °F - 52.0 °F 40% 29.65 in 10.0 mi East 6.9 mph - N/A   Unknown
1:53 AM 77.0 °F - 57.0 °F 50% 29.65 in 10.0 mi East 5.8 mph - N/A   Unknown
2:53 AM 75.9 °F - 60.1 °F 58% 29.65 in 10.0 mi East 3.5 mph - N/A   Unknown
3:53 AM 75.9 °F - 61.0 °F 60% 29.65 in 10.0 mi SE 5.8 mph - N/A   Unknown
4:53 AM 71.1 °F - 61.0 °F 70% 29.67 in 10.0 mi ESE 5.8 mph - N/A   Unknown
5:53 AM 73.0 °F - 62.1 °F 68% 29.68 in 10.0 mi SE 4.6 mph - N/A   Unknown
6:53 AM 75.9 °F - 61.0 °F 60% 29.70 in 10.0 mi SE 6.9 mph - N/A   Unknown
7:53 AM 78.8 °F - 60.8 °F 54% 29.71 in 10.0 mi ESE 4.6 mph - N/A   Clear
8:53 AM 82.9 °F 84.4 °F 64.0 °F 53% 29.73 in 10.0 mi SE 4.6 mph - N/A   Clear
9:53 AM 89.1 °F 89.3 °F 62.1 °F 40% 29.73 in 10.0 mi Calm Calm - N/A   Clear
10:53 AM 95.0 °F 95.2 °F 61.0 °F 32% 29.73 in 10.0 mi North - - N/A   Clear
12:53 PM 104.0 °F 102.9 °F 55.4 °F 20% 29.69 in 10.0 mi SE 9.2 mph 19.6 mph N/A   Clear
1:53 PM 106.0 °F - 50.0 °F 15% 29.67 in 10.0 mi ESE 13.8 mph 19.6 mph N/A   Clear
2:53 PM 108.0 °F - 48.0 °F 13% 29.65 in 10.0 mi ESE 16.1 mph - N/A   Clear
3:53 PM 107.6 °F - 50.0 °F 15% 29.62 in 10.0 mi SE 17.3 mph - N/A   Clear
4:53 PM 106.0 °F - 48.9 °F 15% 29.60 in 10.0 mi SE 18.4 mph - N/A   Clear
5:53 PM 105.1 °F - 51.1 °F 16% 29.59 in 10.0 mi ESE 16.1 mph - N/A   Clear
6:53 PM 100.9 °F - 51.1 °F 19% 29.59 in 10.0 mi SE 15.0 mph - N/A   Clear
7:53 PM 96.1 °F - 52.0 °F 22% 29.60 in 10.0 mi SE 11.5 mph - N/A   Clear
8:53 PM 93.0 °F - 48.9 °F 22% 29.60 in 10.0 mi SSE 13.8 mph - N/A   Clear
9:53 PM 89.1 °F - 46.0 °F 22% 29.62 in 10.0 mi South 6.9 mph - N/A   Clear
10:53 PM 82.0 °F - 48.9 °F 31% 29.62 in 10.0 mi Calm Calm - N/A   Clear
11:53 PM 82.9 °F - 48.0 °F 29% 29.62 in 10.0 mi Calm Calm - N/A   Clear